CAPE
0 0 0 0 0 0 0 0 0 0 0 0 0 0 0 0 0 0 0 0 0 0 0 0 0 0 0 0 0 0 0 0 0 0 0 0 0 0 0 0 0 10 247 0 0
0 0 0 0 0 0 0 0 0 0 0 0 0 0 0 0 0 0 0 0 0 0 0 0 0 0 0 0 0 0 0 0 0 0 0 0 0 0 0 74 245 347 211 11 0
0 0 0 0 0 0 0 0 0 0 0 0 0 0 0 0 0 0 0 0 0 0 0 0 0 0 0 0 0 0 0 0 0 0 58 37 0 9 0 16 312 316 268 73 1
0 0 0 0 0 0 0 0 0 0 0 0 0 0 0 0 0 0 0 0 0 0 0 0 0 0 0 0 0 0 0 0 0 0 0 49 0 0 18 0 431 317 112 45 9
0 0 0 0 0 0 0 0 0 0 0 0 0 0 0 0 0 0 0 0 0 0 0 0 0 0 0 0 0 0 0 0 0 0 0 27 33 0 0 0 285 208 3 0 0
0 0 0 0 0 0 0 0 0 0 0 0 0 0 0 0 0 0 0 0 0 0 0 0 0 0 0 0 0 0 0 0 0 0 0 0 88 1 0 0 1 9 0 0 0
0 0 0 0 0 0 0 0 0 0 0 0 0 0 0 0 0 0 0 0 0 0 0 0 0 0 0 0 0 0 0 0 0 0 0 0 7 0 0 0 0 0 0 0 0
0 0 0 0 0 0 0 0 0 0 0 0 0 0 0 0 0 0 0 0 0 0 0 0 0 0 0 0 0 0 0 0 0 0 0 0 0 11 0 0 0 0 0 0 0
0 0 0 0 0 0 0 0 0 0 0 0 0 0 0 0 0 0 0 0 0 0 0 0 0 0 0 0 0 0 0 0 0 0 0 0 19 65 94 30 16 0 0 0 0
0 0 0 0 0 0 0 0 0 0 0 0 0 0 0 0 0 0 0 0 0 0 0 0 0 0 0 0 0 0 0 0 0 0 0 0 0 248 7 7 22 50 0 0 0
0 0 0 0 0 0 0 0 0 0 0 0 0 0 0 0 0 0 0 0 0 0 0 0 0 0 0 0 0 0 0 0 0 0 0 0 0 150 17 78 106 147 0 0 0
0 0 0 0 0 0 0 0 0 0 0 0 0 0 0 0 0 0 0 0 0 0 0 0 0 0 0 0 0 0 0 0 0 0 0 0 0 76 47 50 9 57 0 0 0
0 0 0 0 0 0 0 0 0 0 0 0 0 0 0 0 0 0 0 0 0 0 0 0 0 0 0 0 0 0 0 0 0 0 0 0 2 11 80 68 2 3 9 2 0
0 0 0 0 0 0 0 0 0 0 0 0 0 0 0 0 0 0 0 0 0 0 0 0 0 0 0 0 0 0 0 0 0 0 0 0 0 0 0 3 52 0 3 24 9
0 0 0 0 0 0 0 0 0 0 0 0 0 0 0 0 0 0 0 0 0 0 0 0 0 0 0 0 0 0 0 0 0 0 0 0 0 0 0 0 0 0 6 1 3
0 0 0 0 0 0 0 0 0 0 0 0 0 0 0 0 0 0 0 0 0 0 0 0 0 0 0 0 0 0 0 0 0 0 0 0 0 0 0 0 0 7 30 9 7
0 0 0 0 0 0 0 0 0 0 0 0 0 0 0 0 0 0 0 0 0 0 0 0 0 0 0 0 0 0 0 0 0 0 0 0 0 0 0 0 0 0 1 0 0
0 0 0 0 0 0 0 0 0 0 0 0 0 0 0 0 0 0 0 0 0 0 0 0 0 0 0 0 0 0 0 0 0 0 0 0 0 0 0 0 0 0 0 0 0
0 0 0 0 0 0 0 0 0 0 0 0 0 0 0 0 0 0 0 0 0 0 0 0 0 0 0 0 0 0 0 0 0 0 0 0 0 9 0 0 0 0 0 0 5
0 0 0 0 0 0 0 0 0 0 0 0 0 1 0 0 0 0 0 0 0 0 0 0 0 0 0 0 0 0 0 0 0 0 0 0 4 6 0 10 0 2 93 647 872
32 2 0 0 0 0 0 0 0 0 0 0 0 0 3 19 0 0 0 0 0 0 0 0 0 3 0 0 0 0 0 0 0 0 0 0 42 3 2 89 113 192 530 620 618
81 9 37 31 3 0 0 0 0 0 0 0 0 0 0 7 29 0 0 0 0 0 0 0 0 0 0 0 0 0 0 4 5 0 3 12 97 0 94 415 292 658 858 55 0
98 10 213 81 38 0 0 0 0 0 0 0 0 0 0 8 112 180 93 8 21 43 65 58 0 0 0 0 20 65 33 3 0 0 0 4 147 192 215 267 231 284 1213 493 0
165 196 192 163 42 3 0 0 0 0 0 0 0 0 0 12 286 287 185 45 17 3 9 440 61 12 42 50 27 121 39 9 7 1 1 100 239 293 225 628 319 0 161 1122 284
72 89 145 95 40 0 0 0 0 0 0 0 0 0 0 110 236 241 148 123 0 0 36 345 13 39 36 31 95 55 34 0 0 4 1 380 302 252 650 1155 857 277 1547 1574 1481
46 93 31 4 38 8 0 0 24 1 0 0 0 0 0 25 239 137 29 73 2 0 87 5 12 0 0 0 0 0 3 0 2 251 382 416 214 157 523 1259 1429 1489 1589 1555 858
35 33 83 89 88 47 0 9 60 19 0 0 0 0 0 68 227 128 32 47 2 64 299 132 139 37 16 0 0 0 277 513 454 349 400 274 239 212 324 1186 1313 1422 1439 1318 1037
CIN
0 0 0 0 0 0 0 0 0 0 0 0 0 0 0 0 0 0 0 0 0 0 0 0 0 0 0 0 0 0 0 0 0 0 0 0 0 0 0 0 0 -10 -207 -52 0
0 0 0 0 0 0 0 0 0 0 0 0 0 0 0 0 0 0 0 0 0 0 0 0 0 0 0 0 0 0 0 0 0 0 0 0 0 0 0 -116 -170 -141 -222 -137 0
0 0 0 0 0 0 0 0 0 0 0 0 0 0 0 0 0 0 0 0 0 0 0 0 0 0 0 0 0 0 0 0 0 0 -63 -72 0 -181 0 -166 -179 -172 -200 -287 -39
0 0 0 0 0 0 0 0 0 0 0 0 0 0 0 0 0 0 0 0 0 0 0 0 0 0 0 0 0 0 0 0 0 0 0 -109 0 0 -179 0 -163 -187 -265 -295 -300
0 0 0 0 0 0 0 0 0 0 0 0 0 0 0 0 0 0 0 0 0 0 0 0 0 0 0 0 0 0 0 0 0 0 0 -55 -67 0 0 0 -179 -183 -122 0 0
0 0 0 0 0 0 0 0 0 0 0 0 0 0 0 0 0 0 0 0 0 0 0 0 0 0 0 0 0 0 0 0 0 0 0 0 -103 -116 0 0 -64 -238 0 0 0
0 0 0 0 0 0 0 0 0 0 0 0 0 0 0 0 0 0 0 0 0 0 0 0 0 0 0 0 0 0 0 0 0 0 0 0 -14 -4 0 0 0 0 0 0 0
0 0 0 0 0 0 0 0 0 0 0 0 0 0 0 0 0 0 0 0 0 0 0 0 0 0 0 0 0 0 0 0 0 0 0 0 0 -120 0 0 0 0 0 0 0
0 0 0 0 0 0 0 0 0 0 0 0 0 0 0 0 0 0 0 0 0 0 0 0 0 0 0 0 0 0 0 0 0 0 0 0 -101 -110 -184 -182 -257 0 0 0 0
0 0 0 0 0 0 0 0 0 0 0 0 0 0 0 0 0 0 0 0 0 0 0 0 0 0 0 0 0 0 0 0 0 0 0 0 0 -240 -360 -302 -188 -278 0 0 0
0 0 0 0 0 0 0 0 0 0 0 0 0 0 0 0 0 0 0 0 0 0 0 0 0 0 0 0 0 0 0 0 0 0 0 0 -80 -274 -448 -419 -367 -283 0 0 0
0 0 0 0 0 0 0 0 0 0 0 0 0 0 0 0 0 0 0 0 0 0 0 0 0 0 0 0 0 0 0 0 0 0 0 0 0 -210 -308 -461 -517 -405 0 0 0
0 0 0 0 0 0 0 0 0 0 0 0 0 0 0 0 0 0 0 0 0 0 0 0 0 0 0 0 0 0 0 0 0 0 0 0 -26 -24 -151 -200 -181 -129 -56 -76 0
0 0 0 0 0 0 0 0 0 0 0 0 0 0 0 0 0 0 0 0 0 0 0 0 0 0 0 0 0 0 0 0 0 0 0 0 0 0 0 -23 -98 0 -49 -102 -148
0 0 0 0 0 0 0 0 0 0 0 0 0 0 0 0 0 0 0 0 0 0 0 0 0 0 0 0 0 0 0 0 0 0 0 0 0 0 0 0 0 -4 -33 -6 -150
0 0 0 0 0 0 0 0 0 0 0 0 0 0 0 0 0 0 0 0 0 0 0 0 0 0 0 0 0 0 0 0 0 0 0 0 0 0 0 0 0 -92 -93 -67 -115
0 0 0 0 0 0 0 0 0 0 0 0 0 0 0 0 0 0 0 0 0 0 0 0 0 0 0 0 0 0 0 0 0 0 0 0 0 0 0 0 0 -4 -20 0 0
0 0 0 0 0 0 0 0 0 0 0 0 0 0 0 0 0 0 0 0 0 0 0 0 0 0 0 0 0 0 0 0 0 0 0 0 0 0 0 0 0 0 0 0 0
0 0 0 0 0 0 0 0 0 0 0 0 0 0 0 0 0 0 0 0 0 0 0 0 0 0 0 0 0 0 0 0 0 0 0 0 0 -73 0 0 0 0 0 0 -13
0 0 0 0 0 0 0 0 0 0 0 0 -6 -3 0 0 0 0 0 0 0 0 0 0 0 0 0 0 0 0 0 0 0 0 0 0 -13 -76 -18 -127 0 -3 -86 -86 -91
-1 -12 0 0 0 0 0 0 0 0 0 0 0 0 -14 -43 0 0 0 0 0 0 0 0 0 -9 0 0 0 0 0 0 0 0 0 0 -38 -48 -39 -155 -195 -448 -386 -302 -130
-4 -10 -78 -110 -48 0 0 0 0 0 0 0 0 0 0 -130 -31 0 0 0 0 0 0 0 0 0 0 0 0 0 0 -30 -38 -2 -49 -68 -83 0 -196 -168 -297 -393 -400 -252 0
-2 -47 -111 -67 -2 0 0 0 0 0 0 0 0 0 0 -10 -49 -35 -45 -41 -37 -65 -31 -78 0 0 0 0 -85 -59 -37 -10 0 0 0 -53 -79 -68 -96 -133 -337 -414 -299 -493 0
-10 -10 -74 -13 -17 -10 0 0 0 0 0 0 0 0 0 -61 -68 -40 -48 -49 -90 -41 -336 -116 -31 -21 -35 -28 -92 -47 -44 -44 -64 -3 -7 -74 -119 -127 -120 -67 -212 0 -305 -307 -523
-4 -21 -25 -26 -6 0 0 0 0 0 0 0 0 0 0 -32 -30 -134 -198 -112 0 0 -59 -54 -34 -42 -36 -21 -28 -20 -40 0 0 -37 -13 -92 -112 -118 -57 -30 -95 -287 -126 -185 -137
0 -5 -11 -77 -120 -40 0 0 -21 -6 0 0 0 0 0 -100 -30 -81 -176 -168 -74 0 -88 -28 -20 0 0 0 0 0 -30 -1 -19 -25 -87 -53 -78 -94 -102 -95 -69 -25 -29 -44 -176
-17 -44 -1 -49 -49 -52 0 -44 -17 -16 0 0 0 0 0 -76 -139 -125 -384 -307 -116 -144 -66 -71 -48 -48 -48 0 0 0 -98 -71 -141 -174 -125 -140 -117 -172 -177 -54 -18 -18 -16 -4 -29
Wind_Speed
13 13 14 16 17 18 19 19 18 17 17 16 16 16 13 11 11 3 7 10 8 10 5 5 6 9 9 6 6 6 2 13 20 6 29 10 16 10 9 10 8 3 12 21 14
14 14 15 16 17 18 19 20 20 18 17 17 15 13 12 8 4 9 9 5 8 13 5 7 8 9 4 4 5 6 4 14 11 17 8 9 15 13 12 17 14 15 20 17 16
14 15 15 17 18 18 20 20 20 19 17 17 15 12 11 6 5 5 6 8 7 10 7 8 9 7 7 6 9 9 12 17 17 6 8 9 8 10 17 12 18 21 20 17 10
12 14 16 17 18 19 21 21 22 20 18 17 14 11 6 4 3 2 6 6 6 5 3 6 8 5 6 7 10 7 17 15 8 6 5 8 9 12 14 12 21 20 19 16 11
12 13 14 16 18 20 21 22 22 21 19 16 13 9 4 4 11 6 6 7 6 4 5 7 6 4 6 7 8 8 13 11 9 7 6 5 6 10 16 17 20 19 17 13 9
13 14 15 17 19 20 21 23 22 20 19 15 11 6 3 6 3 11 9 7 8 5 6 7 7 7 8 9 5 11 14 13 9 7 5 1 9 9 15 17 17 18 15 12 9
12 14 16 17 19 21 23 24 25 20 18 16 9 4 5 16 8 10 11 5 7 8 9 11 10 5 5 10 10 10 10 14 9 6 4 5 7 9 9 16 14 13 14 12 10
12 13 16 18 19 21 23 26 28 25 20 13 7 4 9 10 12 10 10 9 11 10 13 11 10 7 4 8 9 9 6 4 9 9 7 9 4 19 14 11 10 12 13 14 11
12 14 16 18 21 22 25 29 33 21 12 4 4 4 10 6 7 14 13 13 13 10 9 11 5 3 8 5 6 5 6 8 11 12 9 7 7 12 11 17 12 10 13 14 12
13 13 15 18 20 20 25 30 27 8 3 8 6 4 7 11 9 10 10 12 7 5 6 3 4 1 5 0 6 8 5 8 9 17 12 8 7 11 10 11 4 6 15 14 15
14 14 15 18 20 17 14 10 7 3 2 10 5 7 23 10 11 7 9 7 5 5 6 6 3 7 12 11 12 9 7 10 16 17 4 10 7 18 11 13 14 21 17 16 18
13 13 14 17 20 20 6 5 2 7 12 12 19 21 23 14 4 7 9 8 7 7 8 4 11 14 16 14 16 14 10 10 12 10 2 6 7 20 21 23 30 31 20 19 16
13 13 13 15 19 12 7 15 9 7 5 17 20 14 15 11 14 11 10 10 7 8 9 10 13 16 16 13 12 12 7 6 6 9 7 3 2 4 11 10 18 20 20 18 21
13 12 11 13 7 7 8 11 8 7 4 11 10 10 11 12 8 8 15 10 6 12 12 11 16 14 16 10 0 4 5 8 8 6 4 3 6 5 5 11 18 3 14 21 21
13 11 8 2 11 6 10 12 5 5 5 8 12 9 11 15 5 16 10 9 16 15 8 14 9 10 6 4 4 7 7 5 6 6 3 8 3 8 6 8 8 18 18 14 19
12 10 4 7 6 15 15 18 5 1 10 5 8 11 10 12 19 7 9 8 10 14 14 11 6 4 5 5 5 6 4 9 5 4 6 9 6 7 7 9 6 7 11 18 13
12 9 5 6 7 7 14 3 2 6 9 16 13 15 12 10 17 15 13 11 10 4 6 9 6 4 1 5 6 4 6 4 5 4 8 10 3 14 11 13 11 11 12 10 5
10 7 7 11 8 12 8 1 7 12 16 4 12 18 15 12 14 14 11 7 10 8 5 6 5 9 9 9 8 8 9 7 5 3 5 7 7 14 18 18 10 8 7 0 7
3 5 6 10 13 9 5 7 8 8 6 10 9 16 11 14 9 17 12 11 13 9 6 2 5 14 13 6 6 8 4 13 4 5 2 5 10 4 11 9 8 6 5 7 2
5 4 13 11 12 8 6 11 11 14 18 21 8 7 11 17 11 7 10 11 11 13 8 5 5 2 6 5 3 6 4 4 3 4 3 6 4 1 14 11 7 12 11 10 9
5 4 8 16 10 8 11 11 11 19 21 10 10 8 6 2 16 10 10 10 17 15 11 7 3 8 4 3 7 4 5 2 4 4 3 2 2 5 9 9 18 20 16 18 15
3 6 9 13 11 9 12 15 15 19 19 9 5 5 7 10 5 9 11 11 12 6 9 3 5 2 4 6 9 7 6 4 6 6 1 4 4 12 15 14 16 15 15 17 16
4 6 6 15 12 10 12 20 21 20 20 4 5 5 7 6 4 2 6 8 12 8 4 3 2 3 10 8 9 5 9 1 3 4 2 3 3 9 14 10 10 11 12 9 7
3 4 3 9 9 14 15 16 18 20 19 6 6 7 8 8 4 5 7 5 12 7 4 6 3 6 5 2 4 3 8 8 5 4 2 2 5 14 17 15 11 10 7 9 9
3 5 3 6 13 13 9 8 17 17 4 4 7 7 6 1 4 3 3 4 9 2 3 5 3 2 2 5 7 5 4 9 3 1 4 5 9 11 14 14 6 4 8 11 11
4 3 5 7 8 11 10 11 16 13 9 11 6 6 7 5 1 10 6 5 5 2 4 3 1 5 6 6 8 5 9 10 12 11 15 11 8 9 13 15 17 10 8 9 9
2 4 4 4 6 7 11 12 11 9 7 11 8 4 7 3 10 11 8 4 4 3 3 4 3 3 3 6 8 6 13 16 16 19 9 10 4 8 13 13 13 11 10 8 10
Wind_Direction
331 335 333 327 326 324 321 321 320 320 318 316 319 323 321 315 297 215 239 227 188 185 136 269 213 252 258 253 254 268 274 264 267 142 260 120 110 123 136 89 109 180 142 156 159
328 332 328 324 323 320 317 318 317 319 318 317 322 324 317 326 262 232 243 206 201 154 164 226 215 234 249 248 235 177 225 258 268 183 225 136 129 141 123 105 83 97 126 146 160
322 326 324 322 319 319 315 314 314 318 319 317 322 326 311 311 299 236 137 157 160 175 199 222 233 211 238 240 246 243 238 258 285 76 128 134 130 151 126 129 135 137 142 150 168
312 319 320 317 317 317 314 314 315 317 319 317 321 322 318 255 321 95 155 156 165 213 287 290 277 258 247 245 252 250 259 256 265 45 335 152 143 88 122 148 138 140 144 159 178
308 313 314 314 315 315 313 313 311 316 316 314 321 321 286 295 253 146 144 162 148 189 216 236 268 252 263 263 287 269 268 278 281 135 271 119 73 118 115 127 132 138 144 163 167
308 312 312 314 313 311 311 310 310 312 309 309 311 325 239 268 168 144 167 176 158 198 227 241 247 233 282 269 273 288 300 270 291 260 232 312 161 107 134 127 130 141 149 164 174
302 306 309 312 311 312 311 310 307 306 302 300 290 278 267 240 156 171 155 203 182 203 238 247 235 221 231 286 263 281 308 305 270 267 222 192 94 116 124 123 134 145 152 165 183
299 300 305 309 310 311 312 310 305 301 292 285 241 255 253 262 199 178 174 209 220 224 235 265 255 246 236 271 307 306 311 308 284 288 258 119 143 120 128 131 149 158 166 170 193
294 300 306 310 313 316 317 310 299 292 246 184 197 216 261 297 200 189 170 207 210 234 254 268 291 228 327 298 328 300 254 286 281 263 234 139 139 182 159 147 147 187 176 179 187
291 296 302 306 312 319 320 307 287 306 194 195 249 293 259 238 201 225 191 219 199 187 261 272 347 359 301 110 220 248 246 261 254 272 260 224 202 172 156 150 17 253 183 182 190
286 295 302 307 311 323 341 340 348 333 334 271 243 264 297 246 234 199 182 221 258 176 206 215 161 217 229 233 240 249 265 240 256 263 222 205 179 180 140 121 110 295 201 185 190
272 283 295 304 309 311 282 245 319 242 293 274 271 265 268 274 231 192 178 180 229 201 213 275 223 229 223 223 232 244 249 270 279 281 358 194 230 180 170 173 178 206 195 188 183
261 274 290 307 312 299 209 249 293 290 287 287 238 240 238 246 240 191 191 200 209 217 211 205 241 225 243 249 232 238 230 259 263 300 328 58 333 138 187 180 197 206 195 183 193
253 266 289 322 300 306 271 262 259 55 297 262 195 222 215 241 250 238 197 189 233 211 224 226 244 240 242 247 319 281 297 286 284 319 266 116 252 248 253 214 194 138 195 191 201
247 258 279 143 313 285 287 326 0 55 303 167 179 182 165 205 198 222 215 194 228 241 161 243 235 249 274 227 186 247 273 286 296 270 298 309 66 266 244 265 225 198 199 197 198
240 252 308 268 209 246 298 301 16 268 248 199 143 169 162 199 226 231 206 184 230 252 268 246 254 249 237 217 271 276 331 350 341 37 8 268 167 272 253 227 241 228 185 203 223
233 240 212 291 245 330 315 277 208 225 289 150 166 158 192 184 217 219 182 183 216 208 273 290 258 269 8 335 319 318 65 340 347 348 225 256 321 241 249 244 213 214 199 200 236
230 238 233 236 264 304 325 297 232 246 246 308 192 169 190 183 218 222 171 192 221 235 235 225 272 200 205 190 198 229 152 166 217 214 269 287 240 253 250 244 125 102 122 287 277
211 228 241 244 236 250 267 224 215 219 331 336 285 158 195 189 197 214 173 199 203 214 192 269 271 272 174 162 158 278 151 215 210 259 12 256 305 347 356 73 84 128 171 231 331
240 221 249 230 225 235 225 236 246 269 310 313 296 171 175 188 195 176 173 198 218 206 179 256 325 25 104 113 259 181 216 13 337 209 274 300 348 320 11 8 26 43 12 70 49
242 222 244 201 209 221 223 232 253 265 271 284 340 339 355 341 187 194 189 198 206 201 188 181 171 296 85 117 219 299 304 292 128 129 133 297 288 313 50 45 38 39 12 12 28
251 221 205 177 196 210 221 231 253 269 277 267 301 287 286 312 247 208 193 197 176 125 130 133 116 328 265 292 210 194 206 164 114 302 77 170 10 344 31 43 56 44 51 67 70
254 249 297 178 199 193 228 239 244 251 261 229 233 253 285 304 51 5 110 55 86 76 84 27 69 36 332 335 13 17 343 257 139 99 179 114 255 25 27 33 39 61 43 43 29
254 223 309 214 194 201 209 226 245 248 256 274 285 267 303 307 84 70 51 56 64 89 100 82 111 147 178 194 204 316 343 353 57 84 272 50 45 28 21 25 24 33 8 54 40
221 201 186 272 190 222 250 254 232 241 217 252 298 255 265 351 86 75 317 12 76 109 91 91 115 27 274 215 185 262 297 308 326 295 122 88 65 33 30 23 62 35 18 32 43
310 353 17 297 322 220 235 246 250 236 161 238 247 244 283 263 143 198 150 11 73 180 88 25 114 59 353 331 303 240 209 244 269 1 75 95 57 20 23 28 27 24 43 52 57
285 306 192 259 286 231 224 232 246 202 230 212 237 205 267 272 114 106 105 53 99 356 118 104 89 72 264 341 348 357 331 92 76 44 52 60 9 30 29 38 26 22 34 57 62